Hourly Data Report for July 10, 2006

TORONTO CITY
ONTARIO

43°40'00.000" N
79°24'00.000" W
112.50 m
6158355
71508
XTO

Download Data

Hourly Data (July 2006)
Hourly Data Report for July 10, 2006
TIME
LST
Temp Definition
°C
Dew Point Definition
°C
Rel Hum Definition
%
Precip. Amount Definition
mm

Wind Dir Definition
10's deg

Wind Spd Definition
km/h
Visibility Definition
km
Stn Press Definition
kPa
Hmdx Definition


Wind Chill Definition


Weather Definition


00:00 21.5 16.6 74   LegendMM LegendMM   99.75 27   LegendNANA
01:00 21.1 17.6 80   LegendMM LegendMM   99.72 27   LegendNANA
02:00 21.2 17.2 78   LegendMM LegendMM   99.70 27   LegendNANA
03:00 19.7 17.3 86   LegendMM LegendMM   99.69     LegendNANA
04:00 18.6 17.8 95   LegendMM LegendMM   99.72     LegendNANA
05:00 18.8 18.4 98   LegendMM LegendMM   99.67     LegendNANA
06:00 19.5 19.2 98   LegendMM LegendMM   99.70     LegendNANA
07:00 19.9 19.3 96   LegendMM LegendMM   99.76     LegendNANA
08:00 19.5 19.0 97   LegendMM LegendMM   99.82     LegendNANA
09:00 20.0 19.7 98   LegendMM LegendMM   99.81 27   LegendNANA
10:00 19.8 19.5 98   LegendMM LegendMM   99.77     LegendNANA
11:00 19.5 19.2 98   LegendMM LegendMM   99.69     LegendNANA
12:00 19.3 19.1 99   LegendMM LegendMM   99.73     LegendNANA
13:00 18.2 17.0 93   LegendMM LegendMM   99.75     LegendNANA
14:00 18.4 17.9 97   LegendMM LegendMM   99.75     LegendNANA
15:00 19.3 18.3 94   LegendMM LegendMM   99.80     LegendNANA
16:00 21.4 18.4 83   LegendMM LegendMM   99.78 28   LegendNANA
17:00 22.3 18.8 81   LegendMM LegendMM   99.79 29   LegendNANA
18:00 20.7 18.2 86   LegendMM LegendMM   99.83 27   LegendNANA
19:00 19.8 18.7 93   LegendMM LegendMM   99.86     LegendNANA
20:00 19.6 18.8 95   LegendMM LegendMM   99.92     LegendNANA
21:00 19.7 19.1 96   LegendMM LegendMM   99.99     LegendNANA
22:00 19.1 18.7 98   LegendMM LegendMM   100.03     LegendNANA
23:00 19.8 18.7 93   LegendMM LegendMM   100.09     LegendNANA

Notes on Data Quality.

Legend

  • E = Estimated
  • M = Missing
  • NA = Not Available*
  • [empty] = Indicates an unobserved value
Date modified: